Date String (YYYY-MM-DD hh:mm:ss) UTC,Instrument flags,Ambient pressure (hPa),Sample flow (lpm),Bypass flow (lpm),Sample temperature (°C),Ambient temperature (°C),ASC tube jacket temperature (°C),LED temperature (°C),Box temperature (°C),Sample RH (%),Span deviation,Mass concentration (μg/m³),Mass concentration (μg/m³),Mass concentration (μg/m³)
DateTimeUTC,F1_M11,P_M11,Q1_M11,Q2_M11,T1_M11,T2_M11,T3_M11,T4_M11,T5_M11,U1_M11,ZSPAN_M11,X0_M11,X2_M11,X1_M11
2022-03-09 03:00:00,,0820.5,5.00,0.00,22.1,21.5,00.0,31.1,23.9,07.2,0000.0,0010.20,0004.47,0004.01
2022-03-09 03:01:00,,0820.5,5.00,0.00,22.1,21.4,00.0,31.1,23.9,07.3,0000.0,0011.22,0004.69,0004.20
2022-03-09 03:02:00,,0820.5,5.01,0.00,22.1,21.4,00.0,31.1,23.9,07.4,0000.8,0011.52,0004.86,0004.34
2022-03-09 03:03:00,,0820.6,5.00,0.00,22.1,21.4,00.0,31.1,23.9,07.4,0002.5,0011.99,0004.99,0004.45
2022-03-09 03:04:00,,0820.6,4.99,0.00,22.2,21.7,00.0,31.1,24.0,07.4,0001.6,0012.23,0005.06,0004.50
2022-03-09 03:05:00,,0820.6,5.01,0.00,22.3,22.3,00.0,31.2,24.2,07.5,0001.2,0012.31,0005.15,0004.58
2022-03-09 03:06:00,,0820.6,4.99,0.00,22.4,22.9,00.0,31.2,24.4,07.5,0001.4,0013.00,0005.26,0004.68
2022-03-09 03:07:00,,0820.6,5.01,0.00,22.5,22.8,00.0,31.3,24.4,07.4,0002.1,0012.74,0005.35,0004.76
2022-03-09 03:08:00,,0820.6,5.01,0.00,22.5,22.6,00.0,31.3,24.4,07.5,0002.1,0012.59,0005.46,0004.84
2022-03-09 03:09:00,,0820.6,5.00,0.00,22.5,22.5,00.0,31.3,24.4,07.6,0001.1,0012.33,0005.53,0004.91
2022-03-09 03:10:00,,0820.6,5.00,0.00,22.5,22.3,00.0,31.3,24.3,07.8,0000.8,0012.47,0005.64,0004.98
2022-03-09 03:11:00,,0820.6,5.00,0.00,22.4,22.2,00.0,31.3,24.2,07.9,0000.0,0013.41,0005.71,0005.03
2022-03-09 03:12:00,,0820.7,5.00,0.00,22.4,22.1,00.0,31.3,24.2,08.0,0000.2,0013.19,0005.76,0005.07
2022-03-09 03:13:00,,0820.7,5.00,0.00,22.4,22.0,00.0,31.3,24.2,08.1,-000.1,0013.79,0005.83,0005.11
2022-03-09 03:14:00,,0820.7,5.02,0.00,22.4,21.9,00.0,31.3,24.2,08.3,0000.0,0013.86,0005.86,0005.16
2022-03-09 03:15:00,,0820.7,5.01,0.00,22.4,21.8,00.0,31.3,24.1,08.4,0000.1,0013.45,0005.88,0005.20
2022-03-09 03:16:00,,0820.6,4.99,0.00,22.3,21.7,00.0,31.3,24.1,08.5,0000.3,0013.43,0005.94,0005.24
2022-03-09 03:17:00,,0820.6,4.99,0.00,22.3,21.7,00.0,31.3,24.0,08.6,0000.4,0013.87,0005.98,0005.30
2022-03-09 03:18:00,,0820.6,4.99,0.00,22.3,21.6,00.0,31.3,24.0,08.7,0000.0,0014.40,0006.09,0005.36
2022-03-09 03:19:00,,0820.6,5.02,0.00,22.3,21.6,00.0,31.3,24.0,08.8,0000.2,0015.01,0006.15,0005.40
2022-03-09 03:20:00,,0820.5,5.00,0.00,22.2,21.6,00.0,31.3,24.0,08.8,0000.8,0015.66,0006.22,0005.42
2022-03-09 03:21:00,,0820.6,4.99,0.00,22.2,21.5,00.0,31.3,24.0,08.9,0001.3,0016.11,0006.22,0005.43
2022-03-09 03:22:00,,0820.6,5.01,0.00,22.2,21.5,00.0,31.3,24.0,08.9,0001.2,0015.44,0006.24,0005.46
2022-03-09 03:23:00,,0820.6,5.00,0.00,22.2,21.5,00.0,31.3,23.9,08.9,0001.8,0016.60,0006.27,0005.47
2022-03-09 03:24:00,,0820.6,5.00,0.00,22.2,21.5,00.0,31.3,23.9,09.0,0001.7,0018.27,0006.31,0005.48
2022-03-09 03:25:00,,0820.6,4.99,0.00,22.2,21.4,00.0,31.3,23.9,09.0,0002.0,0018.99,0006.36,0005.50
2022-03-09 03:26:00,,0820.6,5.01,0.00,22.1,21.4,00.0,31.3,23.9,09.0,0002.0,0019.49,0006.38,0005.50
2022-03-09 03:27:00,,0820.6,4.99,0.00,22.1,21.4,00.0,31.2,23.9,09.0,0002.7,0019.42,0006.35,0005.49
2022-03-09 03:28:00,,0820.5,5.00,0.00,22.1,21.4,00.0,31.2,23.8,09.0,0002.6,0018.57,0006.37,0005.47
2022-03-09 03:29:00,,0820.6,4.99,0.00,22.1,21.4,00.0,31.2,23.8,09.1,0002.5,0018.92,0006.37,0005.46
2022-03-09 03:30:00,,0820.6,5.00,0.00,22.1,21.4,00.0,31.2,23.8,09.1,0000.8,0019.11,0006.34,0005.47
2022-03-09 03:31:00,,0820.6,5.01,0.00,22.1,21.3,00.0,31.2,23.8,09.1,0003.0,0018.79,0006.34,0005.48
2022-03-09 03:32:00,,0820.4,4.99,0.00,22.0,21.3,00.0,31.2,23.8,09.2,0002.7,0018.65,0006.37,0005.49
2022-03-09 03:33:00,,0820.4,4.99,0.00,22.0,21.3,00.0,31.1,23.7,09.2,0003.0,0018.58,0006.39,0005.48
2022-03-09 03:34:00,,0820.6,4.99,0.00,22.0,21.4,00.0,31.2,23.8,09.2,0002.2,0017.04,0006.38,0005.49
2022-03-09 03:35:00,,0820.6,5.00,0.00,22.1,22.1,00.0,31.2,24.0,09.3,0002.3,0014.71,0006.36,0005.49
2022-03-09 03:36:00,,0820.6,5.00,0.00,22.3,22.8,00.0,31.2,24.2,09.2,0002.6,0013.76,0006.34,0005.47
2022-03-09 03:37:00,,0820.6,5.00,0.00,22.4,22.9,00.0,31.2,24.3,09.1,0002.8,0012.91,0006.34,0005.46
2022-03-09 03:38:00,,0820.6,5.00,0.00,22.4,22.7,00.0,31.2,24.3,09.2,0002.1,0013.16,0006.31,0005.43
2022-03-09 03:39:00,,0820.6,5.00,0.00,22.4,22.4,00.0,31.3,24.2,09.2,0001.9,0013.81,0006.31,0005.41
2022-03-09 03:40:00,,0820.6,5.00,0.00,22.3,22.2,00.0,31.3,24.2,09.2,0001.5,0013.73,0006.31,0005.37
2022-03-09 03:41:00,,0820.6,5.00,0.00,22.3,22.0,00.0,31.3,24.1,09.2,0001.0,0013.02,0006.26,0005.34
2022-03-09 03:42:00,,0820.7,5.01,0.00,22.3,21.9,00.0,31.3,24.0,09.3,0000.9,0012.82,0006.20,0005.30
2022-03-09 03:43:00,,0820.6,4.98,0.00,22.2,21.7,00.0,31.3,23.9,09.3,0001.0,0012.45,0006.16,0005.26
2022-03-09 03:44:00,,0820.5,5.01,0.00,22.2,21.6,00.0,31.3,23.9,09.3,0000.5,0012.34,0006.11,0005.23
2022-03-09 03:45:00,,0820.6,5.00,0.00,22.2,21.5,00.0,31.2,23.9,09.3,0000.7,0012.21,0006.04,0005.18
2022-03-09 03:46:00,,0820.6,5.00,0.00,22.1,21.4,00.0,31.2,23.8,09.4,0001.0,0012.37,0006.00,0005.14
2022-03-09 03:47:00,,0820.6,5.00,0.00,22.1,21.4,00.0,31.2,23.8,09.4,0000.8,0012.27,0005.94,0005.10
2022-03-09 03:48:00,,0820.7,5.00,0.00,22.0,21.3,00.0,31.2,23.8,09.4,0000.8,0012.93,0005.86,0005.06
2022-03-09 03:49:00,,0820.6,5.01,0.00,22.0,21.3,00.0,31.2,23.7,09.4,0000.7,0013.01,0005.80,0005.03
2022-03-09 03:50:00,,0820.6,4.99,0.00,22.0,21.2,00.0,31.2,23.7,09.4,0000.3,0012.63,0005.73,0004.99
2022-03-09 03:51:00,,0820.6,5.02,0.00,22.0,21.2,00.0,31.1,23.7,09.4,0000.0,0011.83,0005.62,0004.95
2022-03-09 03:52:00,,0820.6,4.99,0.00,22.0,21.2,00.0,31.1,23.7,09.5,0000.0,0011.43,0005.57,0004.92
2022-03-09 03:53:00,,0820.6,5.00,0.00,21.9,21.2,00.0,31.1,23.7,09.5,0000.0,0011.87,0005.53,0004.88
2022-03-09 03:54:00,,0820.6,5.00,0.00,21.9,21.1,00.0,31.1,23.6,09.5,0000.0,0012.09,0005.47,0004.85
2022-03-09 03:55:00,,0820.6,5.00,0.00,21.9,21.1,00.0,31.1,23.6,09.4,0000.0,0012.13,0005.45,0004.82
2022-03-09 03:56:00,,0820.6,5.01,0.00,21.9,21.1,00.0,31.0,23.6,09.4,0000.0,0012.10,0005.42,0004.79
2022-03-09 03:57:00,,0820.7,5.00,0.00,21.9,21.1,00.0,31.0,23.5,09.5,0000.0,0011.96,0005.37,0004.76
2022-03-09 03:58:00,,0820.7,5.00,0.00,21.9,21.6,00.0,31.0,23.7,09.5,0000.0,0012.29,0005.33,0004.74
2022-03-09 03:59:00,,0820.7,5.02,0.00,22.0,22.4,00.0,31.1,24.0,09.4,0000.0,0011.37,0005.31,0004.73
